"datetime","temp","dp","rain_mm","uv","solar","mb","wind_mph","gust_mph","windchill","rh"
"2019-07-08 00:00:00",15.7,13.7,0.0,0.0,0,1018.1,0,0,"",88
"2019-07-08 00:01:00",15.7,13.7,0.0,0.0,0,1018.2,0,0,"",88
"2019-07-08 00:02:00",15.7,13.7,0.0,0.0,0,1018.1,0,0,"",88
"2019-07-08 00:03:00",15.7,13.7,0.0,0.0,0,1018.2,0,0,"",88
"2019-07-08 00:04:00",15.7,13.7,0.0,0.0,0,1018.2,0,0,"",88
"2019-07-08 00:05:00",15.7,13.7,0.0,0.0,0,1018.1,0,0,"",88
"2019-07-08 00:06:00",15.7,13.7,0.0,0.0,0,1018.2,1,2,"",88
"2019-07-08 00:07:00",15.7,13.7,0.0,0.0,0,1018.1,0,1,"",88
"2019-07-08 00:08:00",15.6,13.4,0.0,0.0,0,1018.2,0,1,"",87
"2019-07-08 00:09:00",15.6,13.3,0.0,0.0,0,1018.1,0,1,"",86
"2019-07-08 00:10:00",15.6,13.3,0.0,0.0,0,1018.1,0,0,"",86
"2019-07-08 00:11:00",15.6,13.4,0.0,0.0,0,1018.1,0,0,"",87
"2019-07-08 00:12:00",15.6,13.3,0.0,0.0,0,1018.1,0,0,"",86
"2019-07-08 00:13:00",15.6,13.3,0.0,0.0,0,1018.1,0,0,"",86
"2019-07-08 00:14:00",15.6,13.3,0.0,0.0,0,1018.1,0,0,"",86
"2019-07-08 00:15:00",15.6,13.3,0.0,0.0,0,1018.1,1,2,"",86
"2019-07-08 00:16:00",15.6,13.1,0.0,0.0,0,1018.1,0,1,"",85
"2019-07-08 00:17:00",15.6,13.1,0.0,0.0,0,1018.1,0,0,"",85
"2019-07-08 00:18:00",15.6,13.1,0.0,0.0,0,1018.1,0,0,"",85
"2019-07-08 00:19:00",15.6,13.1,0.0,0.0,0,1018.1,0,0,"",85
"2019-07-08 00:20:00",15.7,13.2,0.0,0.0,0,1018.1,0,0,"",85
"2019-07-08 00:21:00",15.6,13.3,0.0,0.0,0,1018.2,0,0,"",86
"2019-07-08 00:22:00",15.6,13.3,0.0,0.0,0,1018.2,0,0,"",86
"2019-07-08 00:23:00",15.6,13.3,0.0,0.0,0,1018.1,0,0,"",86
"2019-07-08 00:24:00",15.6,13.3,0.0,0.0,0,1018.1,0,0,"",86
"2019-07-08 00:25:00",15.6,13.3,0.0,0.0,0,1018.1,0,0,"",86
"2019-07-08 00:26:00",15.6,13.1,0.0,0.0,0,1018.1,0,0,"",85
"2019-07-08 00:27:00",15.5,13.0,0.0,0.0,0,1018.2,0,0,"",85
"2019-07-08 00:28:00",15.6,13.1,0.0,0.0,0,1018.2,0,0,"",85
"2019-07-08 00:29:00",15.6,13.3,0.0,0.0,0,1018.2,0,0,"",86
"2019-07-08 00:30:00",15.6,13.1,0.0,0.0,0,1018.1,0,0,"",85
"2019-07-08 00:31:00",15.6,13.1,0.0,0.0,0,1018.1,0,0,"",85
"2019-07-08 00:32:00",15.6,13.3,0.0,0.0,0,1018.1,0,0,"",86
"2019-07-08 00:33:00",15.6,13.3,0.0,0.0,0,1018.1,0,0,"",86
"2019-07-08 00:34:00",15.6,13.3,0.0,0.0,0,1018.1,0,0,"",86
"2019-07-08 00:35:00",15.6,13.3,0.0,0.0,0,1018.1,0,0,"",86
"2019-07-08 00:36:00",15.6,13.1,0.0,0.0,0,1018.1,0,0,"",85
"2019-07-08 00:37:00",15.6,13.1,0.0,0.0,0,1018.2,0,0,"",85
"2019-07-08 00:38:00",15.6,13.1,0.0,0.0,0,1018.2,0,0,"",85
"2019-07-08 00:39:00",15.6,13.1,0.0,0.0,0,1018.2,0,0,"",85
"2019-07-08 00:40:00",15.6,13.1,0.0,0.0,0,1018.2,0,0,"",85
"2019-07-08 00:41:00",15.6,13.1,0.0,0.0,0,1018.2,0,0,"",85
"2019-07-08 00:42:00",15.6,13.1,0.0,0.0,0,1018.2,0,0,"",85
"2019-07-08 00:43:00",15.5,13.0,0.0,0.0,0,1018.2,0,0,"",85
"2019-07-08 00:44:00",15.5,13.0,0.0,0.0,0,1018.2,0,0,"",85
"2019-07-08 00:45:00",15.5,13.0,0.0,0.0,0,1018.2,0,0,"",85
"2019-07-08 00:46:00",15.5,13.0,0.0,0.0,0,1018.2,0,0,"",85
"2019-07-08 00:47:00",15.5,13.0,0.0,0.0,0,1018.2,0,0,"",85
"2019-07-08 00:48:00",15.5,13.0,0.0,0.0,0,1018.2,0,0,"",85
"2019-07-08 00:49:00",15.6,13.1,0.0,0.0,0,1018.2,0,0,"",85
"2019-07-08 00:50:00",15.6,13.1,0.0,0.0,0,1018.2,0,0,"",85
"2019-07-08 00:51:00",15.5,13.0,0.0,0.0,0,1018.2,0,0,"",85
"2019-07-08 00:52:00",15.5,13.0,0.0,0.0,0,1018.2,0,0,"",85
"2019-07-08 00:53:00",15.4,13.1,0.0,0.0,0,1018.3,0,0,"",86
"2019-07-08 00:54:00",15.4,12.9,0.0,0.0,0,1018.3,0,0,"",85
"2019-07-08 00:55:00",15.4,13.1,0.0,0.0,0,1018.3,0,0,"",86
"2019-07-08 00:56:00",15.3,13.0,0.0,0.0,0,1018.3,0,0,"",86
"2019-07-08 00:57:00",15.3,13.0,0.0,0.0,0,1018.3,0,0,"",86
"2019-07-08 00:58:00",15.3,13.0,0.0,0.0,0,1018.2,0,0,"",86
"2019-07-08 00:59:00",15.3,13.1,0.0,0.0,0,1018.2,0,0,"",87
"2019-07-08 01:00:00",15.3,13.1,0.0,0.0,0,1018.2,0,0,"",87
"2019-07-08 01:01:00",15.3,13.1,0.0,0.0,0,1018.2,0,0,"",87
"2019-07-08 01:02:00",15.3,13.1,0.0,0.0,0,1018.2,0,0,"",87
"2019-07-08 01:03:00",15.3,13.1,0.0,0.0,0,1018.2,0,0,"",87
"2019-07-08 01:04:00",15.2,13.0,0.0,0.0,0,1018.3,0,0,"",87
"2019-07-08 01:05:00",15.2,13.0,0.0,0.0,0,1018.3,0,0,"",87
"2019-07-08 01:06:00",15.2,13.0,0.0,0.0,0,1018.3,0,0,"",87
"2019-07-08 01:07:00",15.1,13.0,0.0,0.0,0,1018.3,0,0,"",87
"2019-07-08 01:08:00",15.1,13.0,0.0,0.0,0,1018.3,0,0,"",87
"2019-07-08 01:09:00",15.1,13.0,0.0,0.0,0,1018.3,0,0,"",87
"2019-07-08 01:10:00",15.1,12.8,0.0,0.0,0,1018.3,0,0,"",86
"2019-07-08 01:11:00",15.1,12.8,0.0,0.0,0,1018.3,0,0,"",86
"2019-07-08 01:12:00",15.2,12.9,0.0,0.0,0,1018.3,0,0,"",86
"2019-07-08 01:13:00",15.1,13.0,0.0,0.0,0,1018.3,0,0,"",87
"2019-07-08 01:14:00",15.1,13.0,0.0,0.0,0,1018.3,0,0,"",87
"2019-07-08 01:15:00",15.1,13.0,0.0,0.0,0,1018.3,0,0,"",87
"2019-07-08 01:16:00",15.1,12.8,0.0,0.0,0,1018.3,0,0,"",86
"2019-07-08 01:17:00",15.1,13.0,0.0,0.0,0,1018.3,0,0,"",87
"2019-07-08 01:18:00",15.2,12.9,0.0,0.0,0,1018.3,0,0,"",86
"2019-07-08 01:19:00",15.1,13.0,0.0,0.0,0,1018.3,0,0,"",87
"2019-07-08 01:20:00",15.1,12.8,0.0,0.0,0,1018.3,0,0,"",86
"2019-07-08 01:21:00",15.1,12.8,0.0,0.0,0,1018.2,0,0,"",86
"2019-07-08 01:22:00",15.1,13.0,0.0,0.0,0,1018.3,0,0,"",87
"2019-07-08 01:23:00",15.2,13.0,0.0,0.0,0,1018.3,0,0,"",87
"2019-07-08 01:24:00",15.1,12.8,0.0,0.0,0,1018.3,0,0,"",86
"2019-07-08 01:25:00",15.1,12.8,0.0,0.0,0,1018.4,0,0,"",86
"2019-07-08 01:26:00",15.1,12.8,0.0,0.0,0,1018.3,0,0,"",86
"2019-07-08 01:27:00",15.1,13.0,0.0,0.0,0,1018.4,0,0,"",87
"2019-07-08 01:28:00",15.1,12.8,0.0,0.0,0,1018.4,0,0,"",86
"2019-07-08 01:29:00",15.1,12.8,0.0,0.0,0,1018.4,0,0,"",86
"2019-07-08 01:30:00",15.1,12.8,0.0,0.0,0,1018.4,0,0,"",86
"2019-07-08 01:31:00",15.1,12.8,0.0,0.0,0,1018.4,0,0,"",86
"2019-07-08 01:32:00",15.2,12.9,0.0,0.0,0,1018.4,0,0,"",86
"2019-07-08 01:33:00",15.2,12.9,0.0,0.0,0,1018.4,0,0,"",86
"2019-07-08 01:34:00",15.2,12.9,0.0,0.0,0,1018.5,0,0,"",86
"2019-07-08 01:35:00",15.2,12.9,0.0,0.0,0,1018.5,0,0,"",86
"2019-07-08 01:36:00",15.2,12.7,0.0,0.0,0,1018.4,0,0,"",85
"2019-07-08 01:37:00",15.2,12.9,0.0,0.0,0,1018.5,0,0,"",86
"2019-07-08 01:38:00",15.1,12.8,0.0,0.0,0,1018.4,0,0,"",86
"2019-07-08 01:39:00",15.1,12.8,0.0,0.0,0,1018.5,0,0,"",86
"2019-07-08 01:40:00",15.0,12.9,0.0,0.0,0,1018.4,0,0,"",87
"2019-07-08 01:41:00",14.9,12.6,0.0,0.0,0,1018.4,0,0,"",86
"2019-07-08 01:42:00",14.9,12.8,0.0,0.0,0,1018.5,0,0,"",87
"2019-07-08 01:43:00",14.8,12.7,0.0,0.0,0,1018.5,0,0,"",87
"2019-07-08 01:44:00",14.8,12.7,0.0,0.0,0,1018.5,0,0,"",87
"2019-07-08 01:45:00",14.8,12.7,0.0,0.0,0,1018.5,0,0,"",87
"2019-07-08 01:46:00",14.7,12.6,0.0,0.0,0,1018.4,0,0,"",87
"2019-07-08 01:47:00",14.7,12.7,0.0,0.0,0,1018.4,0,0,"",88
"2019-07-08 01:48:00",14.6,12.6,0.0,0.0,0,1018.4,0,0,"",88
"2019-07-08 01:49:00",14.6,12.5,0.0,0.0,0,1018.4,0,0,"",87
"2019-07-08 01:50:00",14.6,12.5,0.0,0.0,0,1018.4,0,0,"",87
"2019-07-08 01:51:00",14.6,12.5,0.0,0.0,0,1018.4,0,0,"",87
"2019-07-08 01:52:00",14.6,12.5,0.0,0.0,0,1018.4,0,0,"",87
"2019-07-08 01:53:00",14.6,12.6,0.0,0.0,0,1018.4,0,0,"",88
"2019-07-08 01:54:00",14.5,12.5,0.0,0.0,0,1018.4,0,0,"",88
"2019-07-08 01:55:00",14.5,12.5,0.0,0.0,0,1018.4,0,0,"",88
"2019-07-08 01:56:00",14.4,12.4,0.0,0.0,0,1018.4,0,0,"",88
"2019-07-08 01:57:00",14.4,12.4,0.0,0.0,0,1018.4,0,0,"",88
"2019-07-08 01:58:00",14.4,12.3,0.0,0.0,0,1018.4,0,0,"",87
"2019-07-08 01:59:00",14.4,12.4,0.0,0.0,0,1018.4,0,0,"",88
"2019-07-08 02:00:00",14.4,12.4,0.0,0.0,0,1018.4,0,0,"",88
"2019-07-08 02:01:00",14.4,12.4,0.0,0.0,0,1018.4,0,0,"",88
"2019-07-08 02:02:00",14.4,12.3,0.0,0.0,0,1018.3,0,0,"",87
"2019-07-08 02:03:00",14.4,12.3,0.0,0.0,0,1018.4,0,0,"",87
"2019-07-08 02:04:00",14.5,12.4,0.0,0.0,0,1018.4,0,0,"",87
"2019-07-08 02:05:00",14.5,12.4,0.0,0.0,0,1018.4,0,0,"",87
"2019-07-08 02:06:00",14.5,12.4,0.0,0.0,0,1018.3,0,0,"",87
"2019-07-08 02:07:00",14.6,12.5,0.0,0.0,0,1018.4,0,0,"",87
"2019-07-08 02:08:00",14.6,12.5,0.0,0.0,0,1018.3,0,0,"",87
"2019-07-08 02:09:00",14.6,12.6,0.0,0.0,0,1018.3,0,0,"",88
"2019-07-08 02:10:00",14.6,12.6,0.0,0.0,0,1018.4,0,0,"",88
"2019-07-08 02:11:00",14.6,12.6,0.0,0.0,0,1018.4,0,0,"",88
"2019-07-08 02:12:00",14.5,12.5,0.0,0.0,0,1018.4,0,0,"",88
"2019-07-08 02:13:00",14.6,12.6,0.0,0.0,0,1018.4,0,0,"",88
"2019-07-08 02:14:00",14.6,12.6,0.0,0.0,0,1018.4,0,0,"",88
"2019-07-08 02:15:00",14.5,12.5,0.0,0.0,0,1018.4,0,0,"",88
"2019-07-08 02:16:00",14.4,12.4,0.0,0.0,0,1018.4,0,0,"",88
"2019-07-08 02:17:00",14.4,12.4,0.0,0.0,0,1018.4,0,0,"",88
"2019-07-08 02:18:00",14.4,12.4,0.0,0.0,0,1018.5,0,0,"",88
"2019-07-08 02:19:00",14.4,12.4,0.0,0.0,0,1018.4,0,0,"",88
"2019-07-08 02:20:00",14.4,12.4,0.0,0.0,0,1018.4,0,0,"",88
"2019-07-08 02:21:00",14.4,12.4,0.0,0.0,0,1018.4,0,0,"",88
"2019-07-08 02:22:00",14.4,12.4,0.0,0.0,0,1018.4,0,0,"",88
"2019-07-08 02:23:00",14.4,12.3,0.0,0.0,0,1018.4,0,0,"",87
"2019-07-08 02:24:00",14.4,12.3,0.0,0.0,0,1018.4,0,0,"",87
"2019-07-08 02:25:00",14.4,12.4,0.0,0.0,0,1018.3,0,0,"",88
"2019-07-08 02:26:00",14.4,12.4,0.0,0.0,0,1018.3,0,0,"",88
"2019-07-08 02:27:00",14.4,12.4,0.0,0.0,0,1018.3,0,0,"",88
"2019-07-08 02:28:00",14.4,12.3,0.0,0.0,0,1018.3,0,0,"",87
"2019-07-08 02:29:00",14.3,12.2,0.0,0.0,0,1018.3,0,0,"",87
"2019-07-08 02:30:00",14.3,12.2,0.0,0.0,0,1018.3,0,0,"",87
"2019-07-08 02:31:00",14.3,12.2,0.0,0.0,0,1018.3,0,0,"",87
"2019-07-08 02:32:00",14.3,12.2,0.0,0.0,0,1018.3,0,0,"",87
"2019-07-08 02:33:00",14.3,12.2,0.0,0.0,0,1018.4,0,0,"",87
"2019-07-08 02:34:00",14.3,12.2,0.0,0.0,0,1018.3,0,0,"",87
"2019-07-08 02:35:00",14.2,12.1,0.0,0.0,0,1018.4,0,0,"",87
"2019-07-08 02:36:00",14.2,12.1,0.0,0.0,0,1018.3,0,0,"",87
"2019-07-08 02:37:00",14.3,12.2,0.0,0.0,0,1018.3,0,0,"",87
"2019-07-08 02:38:00",14.3,12.3,0.0,0.0,0,1018.3,0,0,"",88
"2019-07-08 02:39:00",14.2,12.2,0.0,0.0,0,1018.4,0,0,"",88
"2019-07-08 02:40:00",14.2,12.2,0.0,0.0,0,1018.3,0,0,"",88
"2019-07-08 02:41:00",14.2,12.1,0.0,0.0,0,1018.3,0,0,"",87
"2019-07-08 02:42:00",14.2,12.1,0.0,0.0,0,1018.3,0,0,"",87
"2019-07-08 02:43:00",14.2,12.2,0.0,0.0,0,1018.3,0,0,"",88
"2019-07-08 02:44:00",14.2,12.2,0.0,0.0,0,1018.3,0,0,"",88
"2019-07-08 02:45:00",14.2,12.2,0.0,0.0,0,1018.3,0,0,"",88
"2019-07-08 02:46:00",14.2,12.2,0.0,0.0,0,1018.3,0,0,"",88
"2019-07-08 02:47:00",14.2,12.2,0.0,0.0,0,1018.3,0,0,"",88
"2019-07-08 02:48:00",14.2,12.2,0.0,0.0,0,1018.3,0,0,"",88
"2019-07-08 02:49:00",14.2,12.2,0.0,0.0,0,1018.3,0,0,"",88
"2019-07-08 02:50:00",14.2,12.2,0.0,0.0,0,1018.3,0,0,"",88
"2019-07-08 02:51:00",14.2,12.2,0.0,0.0,0,1018.3,0,0,"",88
"2019-07-08 02:52:00",14.2,12.2,0.0,0.0,0,1018.3,0,0,"",88
"2019-07-08 02:53:00",14.2,12.2,0.0,0.0,0,1018.3,0,0,"",88
"2019-07-08 02:54:00",14.2,12.2,0.0,0.0,0,1018.3,0,0,"",88
"2019-07-08 02:55:00",14.2,12.2,0.0,0.0,0,1018.3,0,0,"",88
"2019-07-08 02:56:00",14.2,12.2,0.0,0.0,0,1018.3,0,0,"",88
"2019-07-08 02:57:00",14.2,12.2,0.0,0.0,0,1018.3,0,0,"",88
"2019-07-08 02:58:00",14.2,12.2,0.0,0.0,0,1018.3,0,0,"",88
"2019-07-08 02:59:00",14.2,12.2,0.0,0.0,0,1018.3,0,0,"",88
"2019-07-08 03:00:00",14.3,12.3,0.0,0.0,0,1018.3,0,0,"",88
"2019-07-08 03:01:00",14.3,12.3,0.0,0.0,0,1018.3,0,0,"",88
"2019-07-08 03:02:00",14.2,12.1,0.0,0.0,0,1018.2,0,0,"",87
"2019-07-08 03:03:00",14.2,12.2,0.0,0.0,0,1018.2,0,0,"",88
"2019-07-08 03:04:00",14.2,12.2,0.0,0.0,0,1018.2,0,0,"",88
"2019-07-08 03:05:00",14.2,12.2,0.0,0.0,0,1018.2,0,0,"",88
"2019-07-08 03:06:00",14.2,12.2,0.0,0.0,0,1018.2,0,0,"",88
"2019-07-08 03:07:00",14.1,12.1,0.0,0.0,0,1018.2,0,0,"",88
"2019-07-08 03:08:00",14.1,12.1,0.0,0.0,0,1018.2,0,0,"",88
"2019-07-08 03:09:00",14.0,12.0,0.0,0.0,0,1018.2,0,0,"",88
"2019-07-08 03:10:00",13.9,11.9,0.0,0.0,0,1018.1,0,0,"",88
"2019-07-08 03:11:00",13.9,11.9,0.0,0.0,0,1018.1,0,0,"",88
"2019-07-08 03:12:00",13.9,12.1,0.0,0.0,0,1018.1,0,0,"",89
"2019-07-08 03:13:00",13.8,12.0,0.0,0.0,0,1018.1,0,0,"",89
"2019-07-08 03:14:00",13.8,12.0,0.0,0.0,0,1018.1,0,0,"",89
"2019-07-08 03:15:00",13.8,11.8,0.0,0.0,0,1018.1,0,0,"",88
"2019-07-08 03:16:00",13.7,11.7,0.0,0.0,0,1018.1,0,0,"",88
"2019-07-08 03:17:00",13.7,11.7,0.0,0.0,0,1018.1,0,0,"",88
"2019-07-08 03:18:00",13.6,11.6,0.0,0.0,0,1018.1,0,0,"",88
"2019-07-08 03:19:00",13.6,11.6,0.0,0.0,0,1018.1,0,0,"",88
"2019-07-08 03:20:00",13.5,11.7,0.0,0.0,0,1018.1,0,0,"",89
"2019-07-08 03:21:00",13.4,11.6,0.0,0.0,0,1018.1,0,0,"",89
"2019-07-08 03:22:00",13.4,11.6,0.0,0.0,0,1018.1,0,0,"",89
"2019-07-08 03:23:00",13.3,11.5,0.0,0.0,0,1018.1,0,0,"",89
"2019-07-08 03:24:00",13.3,11.5,0.0,0.0,0,1018.0,0,0,"",89
"2019-07-08 03:25:00",13.3,11.7,0.0,0.0,0,1018.0,0,0,"",90
"2019-07-08 03:26:00",13.3,11.7,0.0,0.0,0,1018.0,0,0,"",90
"2019-07-08 03:27:00",13.3,11.5,0.0,0.0,0,1018.0,0,0,"",89
"2019-07-08 03:28:00",13.2,11.4,0.0,0.0,0,1018.0,0,0,"",89
"2019-07-08 03:29:00",13.2,11.4,0.0,0.0,0,1018.0,0,0,"",89
"2019-07-08 03:30:00",13.1,11.3,0.0,0.0,0,1018.0,0,0,"",89
"2019-07-08 03:31:00",13.1,11.5,0.0,0.0,0,1018.0,0,0,"",90
"2019-07-08 03:32:00",13.1,11.5,0.0,0.0,0,1018.1,0,0,"",90
"2019-07-08 03:33:00",13.1,11.5,0.0,0.0,0,1018.1,0,0,"",90
"2019-07-08 03:34:00",13.2,11.6,0.0,0.0,0,1018.1,0,0,"",90
"2019-07-08 03:35:00",13.2,11.6,0.0,0.0,0,1018.1,0,0,"",90
"2019-07-08 03:36:00",13.2,11.6,0.0,0.0,0,1018.2,0,0,"",90
"2019-07-08 03:37:00",13.2,11.6,0.0,0.0,0,1018.2,0,0,"",90
"2019-07-08 03:38:00",13.2,11.6,0.0,0.0,0,1018.2,0,0,"",90
"2019-07-08 03:39:00",13.3,11.7,0.0,0.0,0,1018.2,0,0,"",90
"2019-07-08 03:40:00",13.3,11.7,0.0,0.0,0,1018.2,0,0,"",90
"2019-07-08 03:41:00",13.3,11.7,0.0,0.0,0,1018.2,0,0,"",90
"2019-07-08 03:42:00",13.2,11.6,0.0,0.0,0,1018.2,0,0,"",90
"2019-07-08 03:43:00",13.2,11.6,0.0,0.0,0,1018.2,0,0,"",90
"2019-07-08 03:44:00",13.1,11.5,0.0,0.0,0,1018.2,0,0,"",90
"2019-07-08 03:45:00",13.0,11.4,0.0,0.0,0,1018.2,0,0,"",90
"2019-07-08 03:46:00",13.0,11.4,0.0,0.0,0,1018.2,0,0,"",90
"2019-07-08 03:47:00",12.9,11.3,0.0,0.0,0,1018.2,0,0,"",90
"2019-07-08 03:48:00",12.8,11.2,0.0,0.0,0,1018.3,0,0,"",90
"2019-07-08 03:49:00",12.7,11.1,0.0,0.0,0,1018.3,0,0,"",90
"2019-07-08 03:50:00",12.7,11.1,0.0,0.0,0,1018.3,0,0,"",90
"2019-07-08 03:51:00",12.6,11.0,0.0,0.0,0,1018.3,0,0,"",90
"2019-07-08 03:52:00",12.6,11.2,0.0,0.0,0,1018.3,0,0,"",91
"2019-07-08 03:53:00",12.6,11.2,0.0,0.0,0,1018.4,0,0,"",91
"2019-07-08 03:54:00",12.6,11.2,0.0,0.0,0,1018.4,0,0,"",91
"2019-07-08 03:55:00",12.6,11.2,0.0,0.0,0,1018.4,0,0,"",91
"2019-07-08 03:56:00",12.6,11.2,0.0,0.0,0,1018.4,0,0,"",91
"2019-07-08 03:57:00",12.5,11.1,0.0,0.0,0,1018.4,0,0,"",91
"2019-07-08 03:58:00",12.5,11.1,0.0,0.0,0,1018.4,0,0,"",91
"2019-07-08 03:59:00",12.5,11.1,0.0,0.0,0,1018.4,0,0,"",91
"2019-07-08 04:00:00",12.4,11.0,0.0,0.0,0,1018.4,0,0,"",91
"2019-07-08 04:01:00",12.4,11.0,0.0,0.0,0,1018.4,0,0,"",91
"2019-07-08 04:02:00",12.4,11.0,0.0,0.0,0,1018.4,0,0,"",91
"2019-07-08 04:03:00",12.4,11.0,0.0,0.0,0,1018.4,0,0,"",91
"2019-07-08 04:04:00",12.4,11.0,0.0,0.0,0,1018.5,0,0,"",91
"2019-07-08 04:05:00",12.4,11.0,0.0,0.0,0,1018.5,0,0,"",91
"2019-07-08 04:06:00",12.4,11.1,0.0,0.0,0,1018.5,0,0,"",92
"2019-07-08 04:07:00",12.4,11.1,0.0,0.0,0,1018.5,0,0,"",92
"2019-07-08 04:08:00",12.4,11.1,0.0,0.0,0,1018.5,0,0,"",92
"2019-07-08 04:09:00",12.4,11.1,0.0,0.0,0,1018.5,0,0,"",92
"2019-07-08 04:10:00",12.4,11.1,0.0,0.0,0,1018.5,0,0,"",92
"2019-07-08 04:11:00",12.4,11.1,0.0,0.0,0,1018.5,0,0,"",92
"2019-07-08 04:12:00",12.4,11.1,0.0,0.0,0,1018.5,0,0,"",92
"2019-07-08 04:13:00",12.4,11.1,0.0,0.0,0,1018.5,0,0,"",92
"2019-07-08 04:14:00",12.4,11.1,0.0,0.0,0,1018.5,0,0,"",92
"2019-07-08 04:15:00",12.5,11.2,0.0,0.0,0,1018.5,0,0,"",92
"2019-07-08 04:16:00",12.6,11.3,0.0,0.0,0,1018.6,0,0,"",92
"2019-07-08 04:17:00",12.6,11.3,0.0,0.0,0,1018.5,0,0,"",92
"2019-07-08 04:18:00",12.6,11.3,0.0,0.0,0,1018.6,0,0,"",92
"2019-07-08 04:19:00",12.6,11.3,0.0,0.0,0,1018.6,0,0,"",92
"2019-07-08 04:20:00",12.6,11.3,0.0,0.0,0,1018.6,0,0,"",92
"2019-07-08 04:21:00",12.6,11.3,0.0,0.0,0,1018.6,0,0,"",92
"2019-07-08 04:22:00",12.6,11.3,0.0,0.0,0,1018.7,0,0,"",92
"2019-07-08 04:23:00",12.7,11.4,0.0,0.0,0,1018.7,0,0,"",92
"2019-07-08 04:24:00",12.7,11.4,0.0,0.0,0,1018.7,0,0,"",92
"2019-07-08 04:25:00",12.7,11.4,0.0,0.0,0,1018.7,0,0,"",92
"2019-07-08 04:26:00",12.8,11.5,0.0,0.0,0,1018.7,0,0,"",92
"2019-07-08 04:27:00",12.8,11.5,0.0,0.0,0,1018.7,0,0,"",92
"2019-07-08 04:28:00",12.8,11.5,0.0,0.0,0,1018.7,0,0,"",92
"2019-07-08 04:29:00",12.8,11.5,0.0,0.0,0,1018.7,0,0,"",92
"2019-07-08 04:30:00",12.8,11.5,0.0,0.0,0,1018.7,0,0,"",92
"2019-07-08 04:31:00",12.8,11.5,0.0,0.0,0,1018.7,0,0,"",92
"2019-07-08 04:32:00",12.8,11.5,0.0,0.0,0,1018.7,0,0,"",92
"2019-07-08 04:33:00",12.8,11.5,0.0,0.0,0,1018.7,0,0,"",92
"2019-07-08 04:34:00",12.9,11.6,0.0,0.0,0,1018.7,0,0,"",92
"2019-07-08 04:35:00",12.9,11.6,0.0,0.0,0,1018.7,0,0,"",92
"2019-07-08 04:36:00",12.9,11.6,0.0,0.0,0,1018.8,0,0,"",92
"2019-07-08 04:37:00",12.9,11.6,0.0,0.0,0,1018.8,0,0,"",92
"2019-07-08 04:38:00",12.9,11.6,0.0,0.0,0,1018.8,0,0,"",92
"2019-07-08 04:39:00",12.9,11.6,0.0,0.0,0,1018.8,0,0,"",92
"2019-07-08 04:40:00",12.9,11.6,0.0,0.0,0,1018.8,0,0,"",92
"2019-07-08 04:41:00",12.9,11.6,0.0,0.0,0,1018.8,0,0,"",92
"2019-07-08 04:42:00",12.9,11.6,0.0,0.0,0,1018.8,0,0,"",92
"2019-07-08 04:43:00",13.0,11.7,0.0,0.0,0,1018.7,0,0,"",92
"2019-07-08 04:44:00",12.9,11.6,0.0,0.0,0,1018.8,0,0,"",92
"2019-07-08 04:45:00",13.0,11.7,0.0,0.0,0,1018.8,0,0,"",92
"2019-07-08 04:46:00",13.0,11.7,0.0,0.0,0,1018.8,0,0,"",92
"2019-07-08 04:47:00",13.0,11.7,0.0,0.0,0,1018.8,0,0,"",92
"2019-07-08 04:48:00",13.0,11.6,0.0,0.0,0,1018.7,0,0,"",91
"2019-07-08 04:49:00",13.0,11.7,0.0,0.0,0,1018.7,0,0,"",92
"2019-07-08 04:50:00",12.9,11.5,0.0,0.0,0,1018.7,0,0,"",91
"2019-07-08 04:51:00",12.9,11.6,0.0,0.0,0,1018.7,0,0,"",92
"2019-07-08 04:52:00",12.9,11.6,0.0,0.0,0,1018.8,0,0,"",92
"2019-07-08 04:53:00",12.9,11.6,0.0,0.0,0,1018.8,0,0,"",92
"2019-07-08 04:54:00",12.9,11.5,0.0,0.0,0,1018.8,0,0,"",91
"2019-07-08 04:55:00",12.9,11.6,0.0,0.0,0,1018.7,0,0,"",92
"2019-07-08 04:56:00",12.9,11.5,0.0,0.0,0,1018.8,0,0,"",91
"2019-07-08 04:57:00",12.9,11.5,0.0,0.0,0,1018.8,0,0,"",91
"2019-07-08 04:58:00",12.9,11.5,0.0,0.0,0,1018.8,0,0,"",91
"2019-07-08 04:59:00",12.9,11.5,0.0,0.0,0,1018.8,0,0,"",91
"2019-07-08 05:00:00",12.8,11.4,0.0,0.0,0,1018.8,0,0,"",91
"2019-07-08 05:01:00",12.8,11.4,0.0,0.0,0,1018.8,0,0,"",91
"2019-07-08 05:02:00",12.8,11.4,0.0,0.0,0,1018.8,0,0,"",91
"2019-07-08 05:03:00",12.8,11.4,0.0,0.0,0,1018.8,0,0,"",91
"2019-07-08 05:04:00",12.8,11.4,0.0,0.0,0,1018.8,0,0,"",91
"2019-07-08 05:05:00",12.8,11.5,0.0,0.0,0,1018.8,0,0,"",92
"2019-07-08 05:06:00",12.8,11.5,0.0,0.0,0,1018.8,0,0,"",92
"2019-07-08 05:07:00",12.8,11.5,0.0,0.0,0,1018.8,0,0,"",92
"2019-07-08 05:08:00",12.8,11.4,0.0,0.0,0,1018.7,0,0,"",91
"2019-07-08 05:09:00",12.8,11.4,0.0,0.0,0,1018.7,0,0,"",91
"2019-07-08 05:10:00",12.7,11.3,0.0,0.0,5,1018.8,0,0,"",91
"2019-07-08 05:11:00",12.7,11.3,0.0,0.0,5,1018.7,0,0,"",91
"2019-07-08 05:12:00",12.6,11.2,0.0,0.0,5,1018.8,0,0,"",91
"2019-07-08 05:13:00",12.6,11.2,0.0,0.0,5,1018.8,0,0,"",91
"2019-07-08 05:14:00",12.6,11.2,0.0,0.0,5,1018.8,0,0,"",91
"2019-07-08 05:15:00",12.6,11.2,0.0,0.0,5,1018.8,0,0,"",91
"2019-07-08 05:16:00",12.6,11.2,0.0,0.0,5,1018.9,0,0,"",91
"2019-07-08 05:17:00",12.6,11.2,0.0,0.0,5,1018.9,0,0,"",91
"2019-07-08 05:18:00",12.5,11.1,0.0,0.0,5,1018.9,0,0,"",91
"2019-07-08 05:19:00",12.4,11.0,0.0,0.0,5,1018.9,0,0,"",91
"2019-07-08 05:20:00",12.4,11.0,0.0,0.0,5,1018.9,0,0,"",91
"2019-07-08 05:21:00",12.4,11.1,0.0,0.0,7,1018.9,0,0,"",92
"2019-07-08 05:22:00",12.4,11.1,0.0,0.0,7,1018.9,0,0,"",92
"2019-07-08 05:23:00",12.3,11.0,0.0,0.0,7,1018.9,0,0,"",92
"2019-07-08 05:24:00",12.3,11.0,0.0,0.0,9,1018.9,0,0,"",92
"2019-07-08 05:25:00",12.3,11.0,0.0,0.0,9,1018.9,0,0,"",92
"2019-07-08 05:26:00",12.3,11.0,0.0,0.0,11,1018.9,0,0,"",92
"2019-07-08 05:27:00",12.3,11.0,0.0,0.0,12,1018.9,0,0,"",92
"2019-07-08 05:28:00",12.3,11.0,0.0,0.0,12,1018.9,0,0,"",92
"2019-07-08 05:29:00",12.3,11.0,0.0,0.0,12,1018.9,0,0,"",92
"2019-07-08 05:30:00",12.3,11.0,0.0,0.0,14,1018.9,0,0,"",92
"2019-07-08 05:31:00",12.4,11.1,0.0,0.0,14,1018.9,0,0,"",92
"2019-07-08 05:32:00",12.4,11.1,0.0,0.0,14,1018.9,0,0,"",92
"2019-07-08 05:33:00",12.4,11.1,0.0,0.0,16,1018.9,0,0,"",92
"2019-07-08 05:34:00",12.4,11.1,0.0,0.0,16,1018.9,0,0,"",92
"2019-07-08 05:35:00",12.4,11.1,0.0,0.0,16,1018.9,0,0,"",92
"2019-07-08 05:36:00",12.4,11.1,0.0,0.0,16,1018.9,0,0,"",92
"2019-07-08 05:37:00",12.4,11.1,0.0,0.0,18,1019.0,0,0,"",92
"2019-07-08 05:38:00",12.4,11.1,0.0,0.0,19,1018.9,0,0,"",92
"2019-07-08 05:39:00",12.4,11.1,0.0,0.0,21,1019.0,0,0,"",92
"2019-07-08 05:40:00",12.4,11.1,0.0,0.0,23,1018.9,0,0,"",92
"2019-07-08 05:41:00",12.4,11.1,0.0,0.0,26,1019.0,0,0,"",92
"2019-07-08 05:42:00",12.4,11.1,0.0,0.0,26,1019.0,0,0,"",92
"2019-07-08 05:43:00",12.4,11.1,0.0,0.0,28,1019.0,0,0,"",92
"2019-07-08 05:44:00",12.4,11.1,0.0,0.0,28,1019.1,0,0,"",92
"2019-07-08 05:45:00",12.5,11.2,0.0,0.0,28,1019.0,0,0,"",92
"2019-07-08 05:46:00",12.5,11.2,0.0,0.0,30,1019.1,0,0,"",92
"2019-07-08 05:47:00",12.5,11.2,0.0,0.0,30,1019.1,0,0,"",92
"2019-07-08 05:48:00",12.5,11.2,0.0,0.0,30,1019.0,0,0,"",92
"2019-07-08 05:49:00",12.6,11.3,0.0,0.0,30,1019.1,0,0,"",92
"2019-07-08 05:50:00",12.6,11.3,0.0,0.0,30,1019.1,0,0,"",92
"2019-07-08 05:51:00",12.6,11.3,0.0,0.0,28,1019.1,0,0,"",92
"2019-07-08 05:52:00",12.6,11.3,0.0,0.0,28,1019.1,0,0,"",92
"2019-07-08 05:53:00",12.6,11.3,0.0,0.0,28,1019.1,0,0,"",92
"2019-07-08 05:54:00",12.6,11.3,0.0,0.0,28,1019.1,0,0,"",92
"2019-07-08 05:55:00",12.7,11.4,0.0,0.0,26,1019.1,0,0,"",92
"2019-07-08 05:56:00",12.7,11.4,0.0,0.0,25,1019.1,0,0,"",92
"2019-07-08 05:57:00",12.7,11.4,0.0,0.0,25,1019.1,0,0,"",92
"2019-07-08 05:58:00",12.7,11.4,0.0,0.0,26,1019.0,0,0,"",92
"2019-07-08 05:59:00",12.7,11.3,0.0,0.0,26,1019.1,0,0,"",91
"2019-07-08 06:00:00",12.7,11.4,0.0,0.0,28,1019.1,0,0,"",92
"2019-07-08 06:01:00",12.8,11.5,0.0,0.0,28,1019.1,0,0,"",92
"2019-07-08 06:02:00",12.8,11.5,0.0,0.0,30,1019.1,0,0,"",92
"2019-07-08 06:03:00",12.8,11.4,0.0,0.0,30,1019.1,0,0,"",91
"2019-07-08 06:04:00",12.8,11.4,0.0,0.0,32,1019.1,0,0,"",91
"2019-07-08 06:05:00",12.8,11.4,0.0,0.0,32,1019.2,0,0,"",91
"2019-07-08 06:06:00",12.8,11.4,0.0,0.0,32,1019.1,0,0,"",91
"2019-07-08 06:07:00",12.8,11.4,0.0,0.0,30,1019.2,0,0,"",91
"2019-07-08 06:08:00",12.8,11.4,0.0,0.0,30,1019.2,0,0,"",91
"2019-07-08 06:09:00",12.9,11.5,0.0,0.0,30,1019.2,0,0,"",91
"2019-07-08 06:10:00",12.9,11.5,0.0,0.0,32,1019.2,0,0,"",91
"2019-07-08 06:11:00",12.9,11.5,0.0,0.0,33,1019.2,0,0,"",91
"2019-07-08 06:12:00",12.9,11.6,0.0,0.0,33,1019.2,0,0,"",92
"2019-07-08 06:13:00",13.1,11.8,0.0,0.0,33,1019.3,0,0,"",92
"2019-07-08 06:14:00",13.1,11.8,0.0,0.0,33,1019.3,0,0,"",92
"2019-07-08 06:15:00",13.1,11.7,0.0,0.0,33,1019.3,0,0,"",91
"2019-07-08 06:16:00",13.1,11.7,0.0,0.0,35,1019.3,0,0,"",91
"2019-07-08 06:17:00",13.1,11.7,0.0,0.0,35,1019.3,0,0,"",91
"2019-07-08 06:18:00",13.2,11.8,0.0,0.0,35,1019.3,0,0,"",91
"2019-07-08 06:19:00",13.2,11.8,0.0,0.0,39,1019.3,0,0,"",91
"2019-07-08 06:20:00",13.2,11.8,0.0,0.0,42,1019.3,0,0,"",91
"2019-07-08 06:21:00",13.2,11.8,0.0,0.0,47,1019.3,0,0,"",91
"2019-07-08 06:22:00",13.2,11.8,0.0,0.0,49,1019.3,0,0,"",91
"2019-07-08 06:23:00",13.3,11.9,0.0,0.0,49,1019.3,0,0,"",91
"2019-07-08 06:24:00",13.3,11.9,0.0,0.0,51,1019.3,0,0,"",91
"2019-07-08 06:25:00",13.3,11.9,0.0,0.0,53,1019.3,0,0,"",91
"2019-07-08 06:26:00",13.3,11.9,0.0,0.0,51,1019.3,0,0,"",91
"2019-07-08 06:27:00",13.3,11.9,0.0,0.0,49,1019.3,0,0,"",91
"2019-07-08 06:28:00",13.3,11.9,0.0,0.0,51,1019.3,0,0,"",91
"2019-07-08 06:29:00",13.3,11.9,0.0,0.0,53,1019.3,0,0,"",91
"2019-07-08 06:30:00",13.3,11.9,0.0,0.0,51,1019.2,0,0,"",91
"2019-07-08 06:31:00",13.3,11.9,0.0,0.0,58,1019.3,0,0,"",91
"2019-07-08 06:32:00",13.3,11.9,0.0,0.0,60,1019.3,0,0,"",91
"2019-07-08 06:33:00",13.4,12.0,0.0,0.0,60,1019.3,0,0,"",91
"2019-07-08 06:34:00",13.4,11.8,0.0,0.0,60,1019.3,0,0,"",90
"2019-07-08 06:35:00",13.4,11.8,0.0,0.0,62,1019.3,0,0,"",90
"2019-07-08 06:36:00",13.4,11.8,0.0,0.0,63,1019.4,0,0,"",90
"2019-07-08 06:37:00",13.4,11.8,0.0,0.0,63,1019.4,0,0,"",90
"2019-07-08 06:38:00",13.5,12.1,0.0,0.0,62,1019.3,0,0,"",91
"2019-07-08 06:39:00",13.5,11.9,0.0,0.0,58,1019.4,0,0,"",90
"2019-07-08 06:40:00",13.6,12.0,0.0,0.0,58,1019.4,0,0,"",90
"2019-07-08 06:41:00",13.6,12.2,0.0,0.0,67,1019.4,0,0,"",91
"2019-07-08 06:42:00",13.7,12.1,0.0,0.0,76,1019.5,0,0,"",90